Location: Bessat
(45.8735°N, 1.9924°E)
Time: 03:07:30
(UTC+00:00)

Cosmos 1869 Rocket - Pass Details

Date: 11 May 2021
Orbit: 604 x 633 km, 82.5° (Epoch: 14 June)

Event Time Altitude Azimuth Distance (km) Brightness Sun altitude
Rises 22:08:56 0° 346° (NNW) 2,872 8.4 -22.2°
Reaches altitude 10° 22:11:11 10° 342° (NNW) 1,963 7.3 -22.3°
Maximum altitude 22:15:25 53° 266° (W) 748 4.0 -22.6°
Enters shadow 22:16:07 47° 231° (SW) 807 4.0 -22.7°
